Reflectivity
-20 -20 -20 -20 -20 -20 -20 -20 -20 -20 -20 -20 -20 -20 -20 -20 -20 -20 -20 -20 -20 -20 -20 -20 -20 -20 -20 -20 -16 20 12 -10 -20 -20 -20 -20 -20 -20 -20 -20 -20 -20 -20
-20 -20 -20 -20 -20 -20 -20 -20 -20 -20 -20 -20 -20 -20 -20 -20 -20 -20 -20 -20 -20 -20 -20 -20 -20 -20 -20 -20 -20 -20 -20 1 2 -19 -20 -20 -9 -20 -20 -20 -20 -20 -20
-20 -20 -20 -20 -20 -20 -20 -20 -20 -20 -20 -20 -20 -20 -20 -20 -20 -20 -20 -20 -20 -20 -20 -20 -20 -20 -20 -20 -20 -20 -20 -20 -19 -13 -4 -20 -20 -20 -14 -20 -20 -15 -20
-20 -20 -20 -20 -20 -20 -20 -20 -20 -20 -20 -20 -20 -20 -20 -20 -20 -20 -20 -20 -20 -20 -20 -20 -20 -20 -20 -20 -20 -20 -20 2 1 12 -8 1 -8 -20 -20 -17 -20 4 -19
-20 -20 -20 -20 -20 -20 -20 -20 -20 -20 -20 -20 -20 -20 -20 -20 -20 -20 -20 -20 -20 -20 -20 7 5 7 -15 -9 -7 -7 -20 -20 -20 -20 6 5 19 28 8 -16 -12 -11 -19
-20 -20 -20 -20 -20 -20 -20 -20 -20 -20 -20 -20 -20 -20 -20 -20 -20 -20 -20 -20 -20 -20 -20 -20 -20 -9 17 15 14 19 15 16 14 6 0 -7 12 14 26 -15 -15 23 31
-20 -20 -20 -20 -20 -20 -20 -20 -20 -20 -20 -20 -20 -20 -20 -20 -20 -20 -20 -0 -20 -17 -20 -20 2 -20 6 17 16 18 18 10 2 -0 8 11 -10 10 -4 18 6 -14 28
-20 -20 -20 -20 -20 -20 -20 -20 -20 -20 -20 -20 -20 -20 -20 -20 -20 -20 -20 -20 -20 -20 -19 -8 -20 -19 6 -11 5 13 13 11 8 3 11 6 1 -20 11 7 13 18 16
-20 -20 -20 -20 -20 -20 -20 -20 -20 -20 -20 -20 -20 -20 -20 -20 -20 -20 -20 -20 -20 -20 -18 11 17 -16 -17 -1 5 2 2 4 3 11 14 13 6 -19 -20 9 19 13 31
-20 -20 -20 -20 -20 -20 -20 -20 -20 -20 -20 -20 -20 -20 -20 -10 1 -9 -20 -20 -20 -20 -20 1 8 10 0 4 15 7 4 1 8 10 12 11 10 7 10 -7 -10 20 18
-20 -20 -20 -20 -20 -20 -20 -20 -20 -20 -20 -20 -20 -20 -20 -20 -20 -6 -12 -20 -20 -19 -0 7 2 8 9 14 9 9 4 7 11 12 11 13 14 17 15 11 11 -18 15
-20 -20 -20 -20 -20 -20 -20 -20 -20 -20 -20 -20 -20 -20 -20 -13 -14 1 0 -13 -12 -20 14 -5 -2 6 7 8 14 11 7 10 11 12 13 12 10 11 11 12 14 15 14
-20 -20 -20 -20 -20 -20 -20 -20 -20 -20 -20 -20 -20 -20 -20 -14 -3 -1 0 -4 -20 -20 -4 3 1 4 10 16 17 18 15 15 13 12 12 14 13 2 12 14 15 -3 -20
-20 -20 -20 -20 -20 -20 -20 -20 -20 -20 -20 -20 -20 -20 -20 -8 -20 -14 4 5 -7 -18 3 -1 4 6 12 7 14 13 14 18 17 12 13 11 12 10 6 16 8 14 19
-20 -20 -20 -20 -20 -20 -20 -20 -20 -20 -20 -20 -20 -20 -20 -20 -20 -20 3 2 8 3 5 -2 8 7 4 14 12 6 7 12 9 14 11 13 11 9 11 10 21 12 18
-20 -20 -20 -20 -20 -20 -20 -20 -20 -20 -20 -20 -20 -20 -20 -20 -20 -20 -20 -3 4 2 6 -0 7 11 8 13 14 12 11 7 6 8 8 9 11 12 21 12 7 4 15
-20 -20 -20 -20 -20 -20 -20 -20 -20 -20 -20 -20 -20 -20 -20 -20 -20 -20 -20 -15 -20 -9 1 2 -10 1 -1 -7 11 14 6 10 7 5 4 5 5 7 11 17 6 11 11
-20 -20 -20 -20 -20 -20 -20 -20 -20 -20 -20 -20 -20 -20 -20 -20 -20 -20 -20 -20 -20 -20 -10 -19 -15 -12 5 -18 -20 3 14 2 -1 -18 4 0 2 1 4 6 9 12 10
-20 -20 -20 -20 -20 -20 -20 -20 -20 -20 -20 -20 -20 -20 -20 -20 -20 -4 -20 -20 -20 -20 -20 -0 -2 -1 -16 -10 -4 -15 -2 3 -20 1 4 7 1 -1 -4 -1 5 11 21
-20 -20 -18 -20 -14 -20 -20 -20 -20 -19 -20 -20 -20 -20 -20 -20 -20 -20 -14 -15 -13 -15 -5 -4 -3 -2 -2 -0 3 3 6 9 -20 -20 -8 -1 -10 -20 -20 -20 -18 -2 13
-20 -16 -14 -12 -2 -20 -17 -20 -20 -20 -20 -20 -20 -20 -20 -20 -20 -20 -20 -20 -20 -20 -20 -20 -20 -20 -20 -20 -2 -2 4 5 -4 -20 -20 -11 9 -2 -20 -20 -20 -20 -20
-20 -20 -20 -20 -20 -20 -20 -20 -20 -20 -20 -20 -20 -20 -20 -20 -20 -20 -20 -20 -20 -20 -20 -20 -20 -20 -20 -20 -20 -20 -12 1 -20 -20 -20 -3 -20 11 -19 -20 -20 -20 -20
-20 -20 -20 -20 -20 -20 -20 -20 -20 -20 -20 -20 -20 -20 -20 -20 -20 -20 -20 -20 -20 -20 -20 -20 -20 -20 -20 -20 -20 -20 -20 -20 -12 -20 -20 -3 -20 5 9 -20 -20 -20 -20
-20 -20 -20 -20 -20 -20 -20 -20 -20 -20 -20 -20 -20 -20 -20 -20 -20 -20 -20 -20 -20 -20 -20 -20 -20 -20 -20 -20 -20 -20 -20 -20 -20 -20 -20 -19 -20 -8 -5 -13 -20 -20 -20
-20 -20 -20 -20 -20 -20 -20 -20 -20 -20 -20 -20 -20 -20 -20 -20 -20 -20 -20 -20 -20 -20 -20 -20 -20 -20 -20 -20 -20 -20 -20 -20 -20 -16 -20 -20 -20 -20 4 -19 -20 -20 -20
-20 -20 -20 -20 -20 -20 -20 -20 -20 -20 -20 -20 -20 -19 -20 -20 -20 -20 -20 -20 -20 -20 -18 -16 -0 -2 -3 -17 -20 -20 -20 -20 -20 -20 -20 -19 -5 -12 -6 -4 -4 -20 -20
Wind_Speed
5 6 5 6 6 7 7 8 8 9 9 10 9 10 10 11 12 8 8 13 11 10 14 17 20 21 21 20 16 14 14 15 16 18 18 18 18 18 18 17 17 17 17
5 5 5 6 7 7 7 7 8 8 8 9 10 10 11 11 11 11 9 11 11 10 13 16 17 18 20 21 20 16 14 14 17 18 18 19 19 19 19 18 18 18 18
7 6 6 7 7 7 8 8 8 8 8 8 11 11 10 11 10 10 10 9 10 10 11 12 14 15 16 19 21 21 18 14 12 14 19 19 20 20 21 21 20 20 20
9 7 6 7 7 6 7 7 8 8 9 9 9 10 9 9 9 9 7 10 9 9 8 7 10 11 17 17 18 19 20 16 12 13 14 18 20 21 22 23 22 22 22
9 6 7 7 7 6 7 8 8 9 9 10 11 9 8 6 6 8 8 10 10 12 11 15 16 12 12 15 15 15 17 20 20 19 16 15 18 21 23 23 23 24 24
8 7 6 7 7 6 7 8 9 8 8 11 11 8 6 4 7 8 9 7 8 11 10 11 10 9 19 23 25 25 23 20 19 18 17 17 17 17 22 23 25 25 25
8 8 6 6 7 6 8 9 8 10 8 11 8 9 4 6 8 6 6 6 12 11 9 9 12 11 10 22 26 26 26 25 23 20 20 19 19 14 17 22 25 24 25
8 7 7 6 7 6 8 9 10 8 6 10 9 8 5 2 14 8 8 10 14 12 15 16 15 15 13 10 19 27 28 26 24 22 20 19 19 18 14 16 22 25 27
7 7 7 7 7 7 7 9 10 11 9 9 11 7 5 6 10 10 9 9 10 10 11 12 14 15 14 11 15 20 28 27 25 23 21 21 19 19 18 14 18 24 27
7 8 8 8 7 6 8 8 9 9 8 8 6 8 4 6 4 7 9 8 10 11 12 10 11 12 13 10 18 27 28 27 26 24 23 23 21 18 18 18 15 18 24
7 7 7 7 7 6 7 8 7 8 7 6 7 7 7 4 4 5 7 12 9 7 7 8 10 10 13 12 11 19 28 27 27 26 25 25 24 23 21 16 17 17 21
5 6 6 5 6 6 6 5 6 8 8 8 7 7 7 5 7 5 8 11 13 7 4 6 9 8 9 10 16 21 28 28 27 27 27 27 26 27 25 25 23 15 18
4 6 5 6 5 6 5 5 6 7 8 8 8 6 6 6 6 6 6 9 10 4 3 5 7 8 6 7 10 19 25 28 28 28 29 29 29 29 30 28 27 23 13
5 5 5 6 7 6 6 6 6 6 7 7 9 7 6 6 5 5 5 7 8 6 2 9 5 8 7 7 12 18 10 27 27 29 30 31 31 32 31 31 32 32 29
5 5 6 7 7 7 7 6 7 7 7 8 8 9 7 5 5 5 5 5 5 6 7 6 6 11 8 8 11 9 11 21 27 28 29 31 32 32 32 32 32 33 30
5 6 7 8 7 8 8 8 7 9 9 8 8 10 9 8 7 5 6 6 6 6 5 7 6 7 10 9 10 9 10 12 24 26 28 30 31 32 33 32 33 33 34
6 7 8 8 8 8 8 9 10 10 11 11 11 11 12 11 8 8 6 6 6 6 6 6 7 8 9 11 10 8 8 9 9 23 26 28 29 31 32 32 32 32 32
6 7 7 8 8 9 9 8 11 10 11 11 12 12 12 10 12 12 9 10 8 6 5 9 7 8 9 12 10 9 6 8 8 17 20 24 28 30 30 32 33 32 32
8 8 8 7 8 7 8 8 10 10 10 9 10 10 11 11 11 9 10 10 9 7 8 6 7 8 9 10 10 11 7 8 8 15 17 19 22 26 28 29 31 31 31
8 7 6 6 6 5 6 7 8 7 8 7 8 9 9 11 11 11 9 10 9 8 8 7 7 7 8 10 8 9 9 6 8 10 11 14 16 21 24 27 28 28 29
9 7 6 4 5 4 3 6 9 5 6 6 4 6 7 8 13 13 9 11 11 9 8 8 8 8 9 10 11 9 8 7 5 9 9 8 7 8 11 18 21 27 27
11 10 9 8 6 6 6 8 5 8 7 7 7 8 9 12 7 10 11 15 15 12 11 9 9 10 10 11 11 10 8 7 8 9 10 6 8 7 7 9 22 24 25
9 8 8 8 9 8 5 6 12 7 7 7 8 8 8 9 12 9 7 8 14 16 13 11 10 11 11 13 13 12 10 9 4 8 10 4 8 7 6 8 22 22 24
9 8 7 8 9 7 2 5 11 6 7 8 9 9 9 11 12 13 8 7 9 10 11 9 10 10 11 13 14 13 13 11 4 11 13 6 9 9 5 7 19 20 22
8 8 7 8 8 8 1 6 11 5 6 7 8 11 11 11 16 20 9 8 8 9 8 7 7 9 10 15 17 11 11 10 9 6 11 8 8 10 5 6 8 19 17
8 7 6 7 9 8 3 5 10 3 4 4 5 8 14 11 13 15 11 10 9 9 9 9 7 7 9 10 13 11 10 10 10 5 12 9 9 10 6 6 7 9 9
Wind_Direction
26 26 25 23 20 8 2 355 357 345 337 333 328 317 311 307 300 296 299 311 315 300 301 297 297 296 292 288 289 296 276 246 236 229 220 217 216 214 211 208 207 205 201
26 45 34 28 21 14 360 356 353 340 334 335 327 329 317 308 303 304 301 304 307 276 274 280 290 298 296 290 288 291 294 285 254 236 228 221 217 215 214 210 207 206 202
39 23 37 25 16 8 1 359 351 346 338 338 334 331 319 317 312 314 312 303 306 296 253 267 272 292 299 293 288 283 281 279 285 271 246 227 221 217 214 212 207 205 204
20 33 30 23 0 8 8 358 356 350 342 344 338 327 318 319 323 306 317 347 340 332 319 306 284 293 291 299 291 284 282 288 293 282 271 254 233 221 219 216 210 207 206
24 21 29 23 350 8 13 2 355 353 341 344 333 320 335 317 323 11 349 8 346 9 0 352 350 338 320 302 312 298 286 282 285 290 290 286 257 238 222 221 216 211 207
25 7 38 21 352 16 11 5 353 358 353 350 323 331 299 16 31 354 335 26 345 344 357 352 345 348 45 35 24 17 8 1 346 330 312 295 284 268 240 225 220 220 214
24 25 18 17 357 25 11 9 355 358 7 1 336 331 341 117 32 347 3 19 359 351 351 351 23 10 17 31 21 13 7 360 347 334 321 307 299 304 259 239 229 219 219
32 34 12 19 17 10 19 15 10 3 9 22 360 311 350 168 20 34 3 30 25 26 21 22 24 19 17 16 19 14 7 1 352 346 334 318 302 289 289 257 234 226 218
44 31 34 26 19 17 17 16 13 20 3 24 27 1 340 360 333 17 360 37 38 37 26 16 20 19 16 17 21 15 10 3 357 352 346 343 321 290 276 266 248 230 224
42 31 34 26 29 29 22 18 25 18 11 20 14 11 10 320 345 321 341 360 30 36 32 22 12 17 12 13 23 17 13 9 3 0 359 356 342 328 289 272 249 247 229
51 45 33 36 33 31 33 27 28 30 29 26 22 7 4 16 49 313 318 340 342 32 44 31 22 9 7 6 18 17 14 12 9 8 8 10 4 2 350 296 264 237 239
76 43 52 46 46 37 32 37 30 46 36 42 26 26 16 19 357 350 329 327 330 357 72 49 32 16 12 1 6 15 16 14 14 17 17 19 17 16 12 13 356 303 246
69 61 46 48 49 44 42 34 39 45 44 38 37 32 29 24 8 353 334 333 324 335 355 49 30 27 15 6 8 13 13 13 21 21 25 24 24 24 23 19 17 16 326
74 67 71 61 54 43 45 34 46 45 42 44 33 39 51 30 16 11 346 335 339 355 139 22 48 20 14 19 15 13 4 18 23 28 29 28 26 28 29 25 27 25 17
113 83 71 69 56 49 42 53 49 43 48 44 39 30 33 53 36 22 0 354 345 332 351 21 7 12 9 3 24 22 18 19 24 28 30 31 31 31 30 30 32 31 26
100 90 73 62 59 55 48 42 50 50 43 40 42 33 30 14 31 46 18 7 9 344 319 19 9 8 9 354 2 15 23 25 28 28 31 31 30 31 32 30 31 33 31
94 81 74 74 62 52 61 66 55 40 54 39 34 35 25 22 29 10 21 28 14 8 337 3 11 6 10 0 350 6 15 20 27 27 29 32 32 31 30 31 31 32 33
91 86 86 81 69 73 52 56 73 61 49 49 36 36 27 24 19 20 12 8 1 34 4 352 5 3 6 1 349 1 9 16 24 29 29 29 31 32 31 30 29 30 30
76 68 65 80 86 87 83 64 59 65 62 54 47 44 37 28 28 20 19 9 358 2 10 4 6 13 3 4 356 360 22 3 18 16 25 27 30 30 30 29 30 28 29
123 114 117 110 106 97 92 88 78 79 72 62 62 53 49 42 31 15 30 17 356 358 6 14 12 10 13 1 357 354 1 30 21 16 3 25 31 32 30 29 28 28 27
133 142 137 135 137 92 98 98 94 79 111 91 131 104 53 66 58 49 30 25 9 12 14 11 17 12 10 360 359 343 353 349 69 23 346 20 13 34 28 29 27 25 27
160 158 151 136 119 83 43 19 30 98 70 60 68 58 60 31 92 74 67 60 45 19 18 14 21 10 10 359 342 335 349 344 1 31 340 29 3 23 47 32 28 25 26
160 156 149 136 113 97 61 3 343 79 73 68 57 52 52 50 12 12 73 72 68 42 22 16 24 16 6 357 342 338 342 333 23 29 348 27 16 11 8 45 29 26 21
161 155 146 129 110 94 68 330 330 101 87 63 48 46 48 41 25 357 353 30 42 39 30 21 25 15 10 3 349 339 342 341 40 60 8 334 17 352 342 19 40 18 25
159 149 148 137 127 124 130 321 308 123 107 93 83 45 28 41 18 359 4 13 27 33 23 21 21 19 13 20 12 359 4 3 354 58 25 317 9 339 337 16 23 21 24
150 138 135 116 88 122 119 349 344 104 106 103 69 93 57 31 24 16 10 11 14 356 354 348 1 11 9 17 25 27 2 7 355 354 26 336 353 352 331 26 24 22 358